EHI
20 18 17 17 19 19 18 17 15 14 14 14 13 10 6 3 2 2 2 2 2 3 5 9 11 11 10 8 7 7 7 8 8 7 6 5 4 4 6 6 7 6 5
20 19 17 17 18 19 18 16 15 14 14 13 11 8 5 4 2 1 1 1 1 1 3 6 8 8 8 8 7 7 8 8 8 8 7 5 4 3 3 4 5 5 5
17 19 17 16 18 18 17 15 14 13 12 10 8 7 6 5 3 2 1 0 0 0 0 1 3 4 5 5 5 5 6 6 6 7 7 6 4 3 1 1 2 3 4
17 18 18 17 16 16 15 14 12 11 10 9 7 7 8 6 5 4 2 1 0 0 0 0 0 1 2 2 2 2 2 2 3 3 3 4 4 3 1 1 1 1 2
19 17 17 16 16 16 15 13 11 10 9 7 7 7 8 7 6 4 3 1 0 0 0 0 0 0 0 0 0 0 0 0 0 0 0 1 1 1 0 0 0 1 2
19 17 17 17 18 17 14 12 11 9 7 6 5 5 6 6 4 3 2 1 0 0 0 0 0 0 0 0 0 0 0 0 0 0 0 0 0 0 0 0 0 0 1
17 17 18 19 19 16 12 10 9 8 6 5 4 3 4 4 2 1 1 0 0 0 0 0 0 0 0 0 0 0 0 0 0 0 0 0 0 0 0 0 0 0 0
14 16 18 19 18 15 11 7 7 7 6 5 5 4 4 4 2 1 0 0 0 1 1 1 0 0 0 0 0 0 0 0 0 0 0 1 0 0 0 0 0 0 0
15 15 16 16 16 15 11 7 7 7 6 6 7 6 5 4 3 2 1 1 1 2 2 1 0 0 0 0 0 0 0 0 0 0 0 0 0 0 0 0 0 0 0
16 14 12 12 14 14 12 9 8 8 8 7 7 7 6 4 3 2 1 2 2 2 1 0 0 0 0 0 0 0 0 0 0 0 0 0 0 0 0 0 0 0 0
13 10 8 8 11 12 11 9 8 10 10 9 8 7 6 4 3 3 2 2 2 1 0 0 0 0 0 0 0 0 0 0 0 0 0 0 0 0 0 0 0 0 0
7 7 6 6 8 9 8 7 7 8 9 8 7 6 5 4 3 3 2 1 1 0 0 0 0 0 0 0 0 0 0 0 0 0 0 0 0 0 0 0 0 0 0
6 6 7 7 7 7 7 6 6 5 5 6 5 4 3 3 3 2 1 0 0 0 0 0 0 0 0 0 0 0 0 0 0 0 0 0 0 0 0 0 0 0 0
6 6 7 7 7 6 6 6 5 4 3 4 3 3 3 3 2 1 0 0 0 0 0 0 0 0 0 0 0 0 0 0 0 0 0 0 0 0 0 0 0 0 0
5 5 6 7 7 6 6 6 4 3 3 3 3 3 2 1 1 0 0 0 0 0 0 0 0 0 0 0 0 0 0 0 0 0 0 0 0 0 0 0 0 0 0
3 4 5 6 6 6 6 5 4 3 3 2 2 1 1 0 0 0 0 0 0 0 0 0 0 0 0 0 0 0 0 0 0 0 0 0 0 0 0 0 0 0 0
1 2 4 5 5 6 5 4 3 3 1 1 1 0 0 0 0 0 0 0 0 0 0 0 0 0 0 0 0 0 0 0 0 0 0 0 0 0 0 0 0 0 0
0 1 3 4 5 5 4 3 3 2 1 0 0 0 0 0 0 0 0 0 0 0 0 0 0 0 0 0 0 0 0 0 0 0 0 0 0 0 0 0 0 0 0
0 1 2 3 4 5 4 3 2 2 1 0 0 0 0 0 0 0 0 0 0 0 0 0 0 0 0 0 0 0 0 0 0 0 0 0 0 0 0 0 0 0 0
0 1 1 2 3 3 2 1 1 1 0 0 0 0 0 0 0 0 0 0 0 0 0 0 0 0 0 0 0 0 0 0 0 0 0 0 0 0 0 0 0 0 0
1 1 1 2 3 2 1 0 0 0 0 0 0 0 0 0 0 0 0 0 0 0 0 0 0 0 0 0 0 0 0 0 0 0 0 0 0 0 0 0 0 0 0
1 1 2 3 3 1 0 0 0 0 0 0 0 0 0 0 0 0 0 0 0 0 0 0 0 0 0 0 0 0 0 0 0 0 0 0 0 0 0 0 0 0 0
1 1 2 2 2 1 0 0 0 0 0 0 0 0 0 0 0 0 0 0 0 0 0 0 0 0 0 0 0 0 0 0 0 0 0 0 0 0 0 0 0 0 0
0 1 1 1 1 0 0 0 0 0 0 0 0 0 0 0 0 0 0 0 0 0 0 0 0 0 0 0 0 0 0 0 0 0 0 0 0 0 0 0 0 0 0
0 0 0 0 0 0 0 0 0 0 0 0 0 0 0 0 0 0 0 0 0 0 0 0 0 0 0 0 0 0 0 0 0 0 0 0 0 0 0 0 0 0 0
0 0 0 0 0 0 0 0 0 0 0 0 0 0 0 0 0 0 0 0 0 0 0 0 0 0 0 0 0 0 0 0 0 0 0 0 0 0 0 0 0 0 0
Wind_Speed
7 8 7 7 6 6 6 5 5 4 3 2 1 2 2 2 2 3 4 4 4 4 4 4 3 4 3 3 4 4 4 3 2 3 2 2 1 0 0 1 1 1 2
8 8 8 7 7 6 6 6 5 4 3 2 1 1 1 1 2 2 3 4 4 4 3 4 4 3 3 2 3 3 4 3 2 3 3 2 2 2 1 0 0 1 2
9 9 8 8 7 6 5 4 4 4 3 3 2 2 2 1 2 2 2 3 4 4 4 4 4 4 3 3 3 3 4 3 3 3 3 3 1 0 2 1 1 1 1
9 9 9 8 7 7 6 5 5 4 4 3 2 2 1 1 2 1 2 2 3 4 4 4 4 5 4 3 3 3 3 3 3 2 3 3 3 2 1 2 1 1 1
10 9 9 9 8 7 6 6 6 5 4 3 2 1 2 1 2 2 2 1 2 2 4 4 4 4 4 4 4 3 4 3 3 3 2 2 2 3 2 1 1 1 1
9 9 9 9 8 7 7 6 6 5 4 3 2 2 3 2 2 1 1 1 1 2 4 4 4 4 4 4 3 3 3 3 3 3 2 2 3 3 2 2 2 1 1
9 9 10 10 9 8 7 6 6 5 4 4 3 3 2 2 2 1 1 2 2 2 4 4 4 4 4 4 4 3 3 3 3 3 3 2 3 3 3 2 2 1 1
9 10 10 9 9 8 7 6 6 5 5 4 4 3 2 1 2 2 2 2 2 3 4 4 4 4 4 4 4 3 3 3 3 3 3 3 2 2 3 3 2 2 2
9 10 10 10 9 9 7 6 6 5 5 4 4 3 2 1 2 1 1 2 2 2 3 3 4 4 4 4 4 3 4 3 3 3 2 3 2 2 3 3 3 3 3
9 10 10 10 9 8 7 6 6 5 5 4 3 2 2 2 1 1 2 3 3 3 3 3 4 3 3 4 4 3 3 3 3 3 3 3 2 2 2 3 3 3 3
10 9 9 9 9 8 7 7 6 5 5 4 3 2 2 1 1 1 2 2 3 3 4 4 4 4 4 4 4 4 4 4 3 2 2 2 3 2 2 2 3 3 2
9 9 9 9 8 8 7 6 6 5 4 4 3 3 2 1 1 1 2 2 2 3 3 4 4 4 4 4 4 4 4 4 3 3 3 3 2 2 2 2 3 2 2
9 9 9 9 8 8 7 7 6 5 4 4 3 3 2 1 1 1 1 1 2 2 3 3 4 4 4 4 4 4 4 4 3 3 3 3 2 2 2 2 2 1 1
9 9 9 8 8 8 7 7 6 5 5 4 3 3 2 2 1 1 1 1 2 3 3 3 4 4 4 4 4 3 3 3 3 3 3 3 3 3 2 2 1 1 1
9 9 9 8 8 8 7 7 6 6 5 4 4 3 2 2 1 0 1 1 2 2 3 3 3 3 3 4 5 4 3 3 3 3 2 3 3 4 3 2 1 1 2
9 9 8 8 8 8 8 7 7 6 5 4 3 2 2 2 1 0 0 1 2 2 2 3 3 3 3 4 5 6 4 3 3 3 2 1 1 0 1 1 2 3 2
8 8 8 8 8 8 7 7 6 6 5 4 3 3 3 2 1 1 0 1 1 2 2 3 3 3 3 2 3 5 5 3 3 3 3 3 3 2 1 2 4 3 2
7 7 7 7 7 8 7 7 6 6 5 4 4 3 3 2 1 1 0 1 1 2 2 2 3 3 3 1 3 5 4 3 2 3 3 2 2 3 4 2 1 2 2
6 6 6 7 7 8 8 7 6 5 5 4 4 3 3 2 2 1 1 1 1 2 2 2 2 3 2 1 3 6 3 2 2 3 3 3 2 3 4 3 1 1 2
6 7 6 7 7 7 7 7 6 6 5 4 3 2 2 2 1 1 1 1 2 2 3 2 2 3 3 2 3 5 4 2 2 1 1 1 2 3 4 3 2 3 3
8 8 8 7 7 7 7 7 6 5 4 3 3 2 2 1 1 1 2 2 3 3 3 3 3 2 2 1 1 4 4 4 4 3 2 1 1 2 4 5 4 4 5
8 8 7 6 6 7 7 6 6 4 4 3 3 2 2 1 0 1 2 3 3 3 3 3 3 2 1 1 1 2 4 6 5 4 3 2 2 3 5 5 3 4 6
8 7 7 7 6 6 6 6 5 4 4 4 3 2 2 1 1 2 3 3 3 3 3 2 3 2 1 1 4 5 5 5 5 4 4 5 5 5 6 6 6 6 5
8 7 7 7 6 6 6 5 5 4 4 4 3 3 3 3 2 3 3 3 3 3 3 3 3 3 3 2 1 2 3 5 5 4 4 7 8 7 6 6 6 5 4
7 7 7 6 7 6 6 5 5 5 5 4 3 3 3 2 2 2 2 4 3 3 5 5 5 5 4 4 5 5 5 5 5 6 6 5 4 4 4 4 4 4 5
7 7 7 6 6 6 6 5 5 5 4 4 4 4 3 2 3 2 2 3 5 4 6 8 8 6 5 5 6 6 7 7 6 6 6 5 4 5 4 4 4 4 4
Wind_Direction
153 145 145 142 141 140 137 133 129 130 138 134 137 113 93 76 68 55 38 14 2 354 335 328 331 316 328 330 325 317 300 294 296 278 266 233 224 195 269 310 338 75 61
163 156 155 153 152 147 145 140 136 127 128 117 101 83 94 88 77 59 47 15 6 350 343 342 327 336 321 330 335 327 311 307 293 291 282 251 196 168 163 195 133 82 80
176 167 163 160 154 147 141 134 130 126 122 117 116 117 129 133 105 70 55 21 7 6 1 352 341 334 323 342 329 325 312 306 292 291 293 288 282 2 164 132 97 83 84
179 174 168 162 154 145 140 139 131 126 122 126 117 131 133 102 70 51 47 32 21 18 18 6 357 342 341 342 325 350 316 301 299 296 294 300 306 275 221 174 136 113 80
178 173 167 158 152 147 143 136 127 120 116 111 113 133 105 89 94 89 69 7 43 27 20 9 3 353 350 353 341 330 319 308 298 296 295 284 265 260 259 238 198 174 118
172 168 161 154 150 147 144 139 133 124 120 115 109 102 96 85 79 64 60 353 32 25 21 10 3 355 358 353 343 329 322 316 305 296 286 278 278 270 260 250 235 234 109
170 165 162 159 153 151 149 145 139 131 132 125 112 102 102 120 106 53 47 359 4 11 15 0 354 355 353 341 337 330 325 313 298 286 285 283 285 288 280 257 243 238 202
171 165 162 161 156 154 153 150 143 138 139 135 129 129 147 156 97 63 13 11 358 12 1 346 348 348 344 339 335 328 333 323 303 298 292 284 281 278 274 267 251 232 207
162 159 160 161 157 156 156 151 148 144 140 142 145 144 139 93 76 75 16 16 359 355 354 345 347 343 345 345 334 346 335 325 312 309 297 292 285 273 271 268 259 257 240
155 155 159 159 153 151 146 145 148 149 148 154 156 138 128 109 82 37 37 13 358 355 343 347 348 343 344 347 338 335 350 337 334 328 321 304 297 287 273 270 263 264 267
157 157 156 153 149 147 149 151 152 155 157 153 146 135 126 112 87 56 36 9 357 350 347 348 342 346 353 351 343 343 340 335 342 330 321 314 306 294 279 272 265 262 259
157 157 155 153 154 155 157 154 156 160 155 147 141 136 133 110 78 63 29 4 358 348 352 348 344 351 3 351 345 342 342 340 341 340 334 318 309 291 288 282 274 271 252
155 157 159 160 163 162 159 158 164 159 153 153 148 138 138 125 107 78 29 5 353 349 346 346 351 357 356 351 353 345 346 346 342 338 335 327 317 304 305 280 269 254 226
159 164 165 167 166 165 163 164 164 161 160 158 149 145 146 140 122 97 36 7 354 357 355 357 359 358 356 353 354 354 359 357 349 342 335 333 327 324 312 281 260 240 218
167 169 170 168 168 168 166 167 160 160 163 166 165 156 153 150 142 76 26 8 351 356 2 356 354 355 352 4 354 342 342 339 331 330 347 3 7 350 327 321 303 240 223
171 170 171 169 173 172 170 167 163 166 172 177 168 153 163 165 156 184 353 355 354 356 357 354 352 354 14 26 349 324 319 319 327 340 344 353 360 44 183 230 305 309 272
169 170 169 172 174 172 169 168 168 169 172 173 172 169 182 180 184 241 318 357 343 339 346 350 348 359 28 17 331 325 311 313 326 330 330 347 20 338 335 180 198 214 249
164 163 166 168 169 167 166 167 168 173 175 176 178 182 189 188 200 228 293 329 325 322 336 337 343 347 16 21 315 312 289 304 318 326 336 343 344 353 329 290 268 254 237
158 158 164 163 163 165 166 169 172 177 181 181 181 187 195 193 208 228 285 302 302 301 302 311 326 330 354 0 311 305 299 320 329 332 346 338 340 11 331 296 290 285 267
154 155 158 158 160 163 167 172 175 179 184 183 181 191 205 212 221 250 280 297 288 285 291 321 320 317 329 19 317 303 299 320 313 304 306 34 327 340 319 294 291 282 282
152 155 159 162 163 165 171 176 179 180 180 177 176 184 195 208 217 261 280 285 290 303 303 308 300 298 312 278 274 295 298 312 312 315 315 16 110 283 291 284 279 282 290
153 156 159 159 162 169 176 178 178 174 172 174 174 168 181 228 182 259 274 279 285 272 269 277 282 274 251 280 227 251 274 301 304 305 312 360 11 303 286 277 269 268 271
152 158 160 158 162 170 180 179 171 170 171 177 176 176 194 227 254 263 262 262 261 273 285 288 291 301 310 195 198 224 244 260 277 302 329 312 292 284 261 243 251 254 249
153 159 161 162 164 172 178 173 169 172 177 184 187 196 213 229 231 252 258 272 284 290 296 305 308 310 299 300 286 249 233 227 240 265 256 241 249 252 264 261 241 241 257
153 160 166 167 166 164 166 167 169 176 185 192 202 217 228 241 261 262 286 291 310 324 303 308 309 311 312 358 358 317 308 316 327 311 278 266 259 254 250 251 257 254 243
155 159 162 166 168 166 166 169 174 181 190 198 210 223 230 239 259 265 255 232 249 252 249 259 278 293 293 300 298 293 288 288 294 285 271 274 273 277 280 276 267 254 251